�������C�����ː����j�^�v���󋵏��
Date,Time,Cs137(Bq/L),Cs134(Bq/L),�S��(Bq/L)
2020/02/13,00:00,0.16,ND,18
2020/02/13,00:10,0.15,ND,18
2020/02/13,00:20,0.18,ND,15
2020/02/13,00:30,0.16,ND,16
2020/02/13,00:40,0.16,ND,16
2020/02/13,00:50,0.17,ND,16
2020/02/13,01:00,0.18,ND,16
2020/02/13,01:10,0.18,ND,14
2020/02/13,01:20,0.17,ND,19
2020/02/13,01:30,0.18,ND,20
2020/02/13,01:40,0.17,ND,18
2020/02/13,01:50,0.15,ND,20
2020/02/13,02:00,0.16,ND,21
2020/02/13,02:10,0.15,ND,24
2020/02/13,02:20,0.15,ND,23
2020/02/13,02:30,0.16,ND,24
2020/02/13,02:40,0.16,ND,24
2020/02/13,02:50,0.16,ND,20
2020/02/13,03:00,0.17,ND,19
2020/02/13,03:10,0.18,ND,16
2020/02/13,03:20,0.17,ND,13
2020/02/13,03:30,0.15,ND,13
2020/02/13,03:40,0.15,ND,17
2020/02/13,03:50,0.14,ND,19
2020/02/13,04:00,0.12,ND,18
2020/02/13,04:10,0.11,ND,19
2020/02/13,04:20,0.12,ND,24
2020/02/13,04:30,0.14,ND,23
2020/02/13,04:40,0.14,ND,22
2020/02/13,04:50,0.15,ND,20
2020/02/13,05:00,0.15,ND,20
2020/02/13,05:10,0.13,ND,17
2020/02/13,05:20,0.13,ND,14
2020/02/13,05:30,0.13,ND,14
2020/02/13,05:40,0.11,ND,11
2020/02/13,05:50,0.10,ND,12
2020/02/13,06:00,0.10,ND,16
2020/02/13,06:10,0.12,ND,18
2020/02/13,06:20,0.12,ND,18
2020/02/13,06:30,0.11,ND,19
2020/02/13,06:40,0.11,ND,20
2020/02/13,06:50,0.095,ND,20
2020/02/13,07:00,0.10,ND,19
2020/02/13,07:10,0.12,ND,20
2020/02/13,07:20,0.10,ND,19
2020/02/13,07:30,0.096,ND,18
2020/02/13,07:40,0.11,ND,21
2020/02/13,07:50,0.12,ND,20
2020/02/13,08:00,0.10,ND,19
2020/02/13,08:10,0.10,ND,17
2020/02/13,08:20,0.098,ND,19
2020/02/13,08:30,0.10,ND,19
2020/02/13,08:40,0.10,ND,17
2020/02/13,08:50,0.12,ND,17
2020/02/13,09:00,0.14,ND,17
2020/02/13,09:10,0.15,ND,19
2020/02/13,09:20,0.15,ND,19
2020/02/13,09:30,0.18,ND,21
2020/02/13,09:40,0.18,ND,20
2020/02/13,09:50,0.18,ND,21
2020/02/13,10:00,0.18,ND,20
2020/02/13,10:10,0.17,ND,20
2020/02/13,10:20,0.21,ND,18
2020/02/13,10:30,0.20,ND,16
2020/02/13,10:40,0.20,ND,17
2020/02/13,10:50,0.20,ND,19
2020/02/13,11:00,0.18,ND,19
2020/02/13,11:10,0.19,ND,19
2020/02/13,11:20,0.17,ND,18
2020/02/13,11:30,0.17,ND,20
2020/02/13,11:40,0.19,ND,21
2020/02/13,11:50,0.21,ND,19
2020/02/13,12:00,0.21,ND,18
2020/02/13,12:10,0.21,ND,18
2020/02/13,12:20,0.22,ND,20
2020/02/13,12:30,0.23,ND,20
2020/02/13,12:40,0.22,ND,17
2020/02/13,12:50,0.21,ND,19
2020/02/13,13:00,0.20,ND,22
2020/02/13,13:10,0.21,ND,23
2020/02/13,13:20,0.18,ND,22
2020/02/13,13:30,0.18,ND,20
2020/02/13,13:40,0.16,ND,20
2020/02/13,13:50,0.15,ND,20
2020/02/13,14:00,0.15,ND,19
2020/02/13,14:10,0.16,ND,18
2020/02/13,14:20,0.18,ND,20
2020/02/13,14:30,0.18,ND,20
2020/02/13,14:40,0.19,ND,23
2020/02/13,14:50,0.20,ND,24
2020/02/13,15:00,0.19,ND,25
2020/02/13,15:10,0.18,ND,25
2020/02/13,15:20,0.18,ND,23
2020/02/13,15:30,0.18,ND,23
2020/02/13,15:40,0.17,ND,23
2020/02/13,15:50,0.16,ND,22
2020/02/13,16:00,0.18,ND,21
2020/02/13,16:10,0.17,ND,19
2020/02/13,16:20,0.14,ND,22
2020/02/13,16:30,0.13,ND,25
2020/02/13,16:40,0.11,ND,21
2020/02/13,16:50,0.10,ND,19
2020/02/13,17:00,0.085,ND,21
2020/02/13,17:10,0.084,ND,22
2020/02/13,17:20,0.093,ND,18
2020/02/13,17:30,0.070,ND,16
2020/02/13,17:40,0.075,ND,17
2020/02/13,17:50,0.072,ND,16
2020/02/13,18:00,0.058,ND,15
2020/02/13,18:10,0.049,ND,12
2020/02/13,18:20,ND,ND,17
2020/02/13,18:30,0.055,ND,17
2020/02/13,18:40,ND,ND,18
2020/02/13,18:50,0.066,ND,19
2020/02/13,19:00,0.072,ND,21
2020/02/13,19:10,0.074,ND,24
2020/02/13,19:20,0.080,ND,22
2020/02/13,19:30,0.070,ND,23
2020/02/13,19:40,0.054,ND,22
2020/02/13,19:50,ND,ND,20
2020/02/13,20:00,ND,ND,20
2020/02/13,20:10,ND,ND,18
2020/02/13,20:20,ND,ND,16
2020/02/13,20:30,ND,ND,17
2020/02/13,20:40,ND,ND,19
2020/02/13,20:50,ND,ND,21
2020/02/13,21:00,ND,ND,19
2020/02/13,21:10,ND,ND,21
2020/02/13,21:20,ND,ND,21
2020/02/13,21:30,ND,ND,20
2020/02/13,21:40,ND,ND,15
2020/02/13,21:50,ND,ND,15
2020/02/13,22:00,ND,ND,13
2020/02/13,22:10,ND,ND,11
2020/02/13,22:20,ND,ND,9.5
2020/02/13,22:30,ND,ND,ND
2020/02/13,22:40,0.068,ND,11
2020/02/13,22:50,0.078,ND,11
2020/02/13,23:00,0.085,ND,11
2020/02/13,23:10,0.085,ND,12
2020/02/13,23:20,0.10,ND,19
2020/02/13,23:30,0.094,ND,18
2020/02/13,23:40,0.076,ND,20
2020/02/13,23:50,0.055,ND,22
